CW4354 Weather Reports


time (UTC)temp
C
wind
direction
speed
KPH
gust
KPH
rain 1hr
cm
rain 24hr
cm
rain mn
cm
humidity
%
barometer
mb
20260506201547 16 0 0.0 0.0 0.03 0.08 0.08 95 1006.6
20260506200125 16 0 0.0 0.0 0.03 0.08 0.08 95 1006.8
20260506194540 16 0 0.0 0.0 0.05 0.08 0.08 95 1006.9
20260506193047 16 0 0.0 0.0 0.05 0.08 0.08 94 1007.1
20260506191547 16 0 0.0 0.0 0.05 0.05 0.05 94 1007.3
20260506190044 16 0 0.0 0.0 0.05 0.05 0.05 94 1007.6
20260506184554 16 0 0.0 0.0 0.03 0.03 0.03 94 1007.5
20260506183049 16 0 0.0 0.0 0.03 0.03 0.03 93 1007.5
20260506181549 16 0 0.0 0.0 0.00 0.00 0.00 93 1007.6
20260506180055 16 0 0.0 0.0 0.00 0.00 0.00 93 1007.5
20260506174548 16 0 0.0 0.0 0.00 0.00 0.00 93 1007.7
20260506173111 16 0 0.0 0.0 0.00 0.00 0.00 93 1007.8
20260506171552 16 0 0.0 0.0 0.00 0.00 0.00 93 1007.9
20260506170051 16 0 0.0 0.0 0.00 0.00 0.00 93 1008.1
20260506164543 16 0 0.0 0.0 0.00 0.00 0.00 93 1007.9
20260506163051 16 0 0.0 0.0 0.00 0.00 0.00 92 1008.1
20260506161555 16 0 0.0 0.0 0.00 0.00 0.00 92 1008.6
20260506160105 17 0 0.0 0.0 0.00 0.00 0.00 91 1009.1
20260506154552 17 0 0.0 0.0 0.00 0.00 0.00 90 1009.3
20260506153050 17 0 0.0 0.0 0.00 0.00 0.00 88 1009.0
20260506151541 17 0 0.0 0.0 0.00 0.00 0.00 88 1009.1
20260506150054 17 0 0.0 0.0 0.00 0.00 0.00 84 1008.9
20260506144552 18 0 0.0 0.0 0.00 0.00 0.00 79 1009.1
20260506143052 18 0 0.0 0.0 0.00 0.00 0.00 75 1009.1
20260506141551 18 0 0.0 0.0 0.00 0.00 0.00 76 1009.1
20260506140051 18 0 0.0 0.0 0.00 0.00 0.00 77 1008.9
20260506134609 18 0 0.0 0.0 0.00 0.00 0.00 76 1009.0
20260506133047 18 0 0.0 0.0 0.00 0.00 0.00 75 1009.1
20260506131606 18 0 0.0 0.0 0.00 0.00 0.00 76 1009.4
20260506130045 18 0 0.0 0.0 0.00 0.00 0.00 76 1009.1
20260506124551 18 0 0.0 0.0 0.00 0.00 0.00 76 1009.3
20260506123050 18 0 0.0 0.0 0.00 0.00 0.00 76 1009.2
20260506121549 18 0 0.0 0.0 0.00 0.00 0.00 77 1009.1
20260506120051 18 0 0.0 0.0 0.00 0.00 0.00 78 1009.1
20260506114554 18 0 0.0 0.0 0.00 0.00 0.00 78 1009.0
20260506113051 18 0 0.0 0.0 0.00 0.00 0.00 78 1009.3
20260506111557 18 0 0.0 0.0 0.00 0.00 0.00 79 1009.0
20260506110051 17 0 0.0 0.0 0.00 0.00 0.00 78 1009.0
20260506104614 17 0 0.0 0.0 0.00 0.00 0.00 80 1008.8
20260506103050 17 0 0.0 0.0 0.00 0.00 0.00 81 1008.8
20260506101549 17 0 0.0 0.0 0.00 0.00 0.00 81 1008.8
20260506100049 17 0 0.0 0.0 0.00 0.00 0.00 80 1008.8
20260506094545 17 0 0.0 0.0 0.00 0.03 0.00 80 1008.9
20260506093051 17 0 0.0 0.0 0.00 0.03 0.00 80 1008.7
20260506091542 17 0 0.0 0.0 0.00 0.03 0.00 81 1008.8
20260506090041 17 0 0.0 0.0 0.00 0.03 0.00 81 1008.9
20260506084546 17 0 0.0 0.0 0.00 0.03 0.00 82 1008.9
20260506083104 17 0 0.0 0.0 0.00 0.03 0.00 81 1008.9
20260506081552 17 0 0.0 0.0 0.00 0.03 0.00 81 1008.9
20260506073048 16 0 0.0 0.0 0.00 0.03 0.00 79 1009.1
20260506071551 17 0 0.0 0.0 0.00 0.03 0.00 78 1009.1
20260506061549 17 0 0.0 0.0 0.00 0.03 0.00 74 1009.6
20260506044546 17 0 0.0 0.0 0.00 0.03 0.00 73 1010.1
20260506043044 17 0 0.0 0.0 0.00 0.03 0.00 71 1010.0
20260506041542 18 0 0.0 0.0 0.00 0.03 0.00 69 1010.0
20260506040041 18 0 0.0 0.0 0.00 0.03 0.00 68 1010.1
20260506034541 18 0 0.0 0.0 0.00 0.03 0.03 67 1010.0
20260506033049 19 0 0.0 0.0 0.00 0.03 0.03 66 1009.9
20260506031542 19 0 0.0 0.0 0.00 0.03 0.03 66 1009.8
20260506030042 19 0 0.0 0.0 0.00 0.03 0.03 64 1009.8
20260506024550 20 0 0.0 0.0 0.00 0.03 0.03 61 1009.8
20260506023047 20 0 0.0 0.0 0.00 0.03 0.03 58 1009.8
20260506021547 20 0 0.0 0.0 0.00 0.03 0.03 56 1009.7
20260506020050 21 0 0.0 0.0 0.00 0.03 0.03 55 1009.8
20260506014541 21 0 0.0 0.0 0.00 0.03 0.03 52 1009.5
20260506013048 22 0 0.0 0.0 0.00 0.03 0.03 52 1009.4
20260506011613 22 0 0.0 0.0 0.00 0.03 0.03 52 1009.3
20260506010047 22 0 0.0 0.0 0.00 0.03 0.03 51 1009.0
20260506004602 22 0 0.0 0.0 0.00 0.03 0.03 50 1008.7
20260506003050 22 0 0.0 0.0 0.00 0.03 0.03 49 1008.6
20260506001549 23 0 0.0 0.0 0.00 0.03 0.03 47 1008.3
20260506000115 23 0 0.0 0.0 0.00 0.03 0.03 44 1008.3
20260505234553 24 0 0.0 0.0 0.00 0.03 0.03 43 1008.1
20260505233056 25 0 0.0 0.0 0.00 0.03 0.03 40 1008.0
20260505231602 25 0 0.0 4.8 0.00 0.03 0.03 39 1007.9
20260505224550 26 0 0.0 0.0 0.00 0.03 0.03 40 1007.7
20260505223046 26 0 0.0 0.0 0.00 0.03 0.03 38 1007.6
20260505221557 26 0 0.0 6.4 0.00 0.03 0.03 38 1007.7
20260505220053 26 0 0.0 1.6 0.00 0.03 0.03 35 1007.8
20260505214547 26 0 0.0 3.2 0.00 0.03 0.03 36 1007.8
20260505213045 26 0 0.0 16.1 0.00 0.03 0.03 34 1007.6
20260505211543 27 0 0.0 9.7 0.00 0.03 0.03 33 1007.4
20260505210041 27 0 1.6 14.5 0.00 0.03 0.03 34 1007.2
20260505204553 27 296 1.6 4.8 0.00 0.03 0.03 32 1007.4
20260505203056 28 0 0.0 4.8 0.00 0.03 0.03 33 1007.5